owner,sensor,date,latitude,longitude,relative_humidity,qcFlag 
TABS,ioos:station:wmo:42047:1,2011-06-01T00:00:00Z,27.8966,-93.5973,-999.0,22222222 
TABS,ioos:station:wmo:42047:1,2011-06-01T00:30:00Z,27.8966,-93.5973,-999.0,22222222 
TABS,ioos:station:wmo:42047:1,2011-06-01T01:00:00Z,27.8966,-93.5973,-999.0,22222222 
TABS,ioos:station:wmo:42047:1,2011-06-01T01:30:00Z,27.8966,-93.5973,-999.0,22222222 
TABS,ioos:station:wmo:42047:1,2011-06-01T02:00:00Z,27.8966,-93.5973,-999.0,22222222 
TABS,ioos:station:wmo:42047:1,2011-06-01T02:30:00Z,27.8966,-93.5973,-999.0,22222222 
TABS,ioos:station:wmo:42047:1,2011-06-01T03:00:00Z,27.8966,-93.5973,81.1,22222222 
TABS,ioos:station:wmo:42047:1,2011-06-01T03:00:00Z,27.8966,-93.5973,81.1,11111222 
TABS,ioos:station:wmo:42047:1,2011-06-01T03:30:00Z,27.8966,-93.5973,97.5,22222222 
TABS,ioos:station:wmo:42047:1,2011-06-01T03:30:00Z,27.8966,-93.5973,97.5,11111222 
TABS,ioos:station:wmo:42047:1,2011-06-01T04:00:00Z,27.8966,-93.5973,98.3,22222222 
TABS,ioos:station:wmo:42047:1,2011-06-01T04:00:00Z,27.8966,-93.5973,98.3,11111222 
TABS,ioos:station:wmo:42047:1,2011-06-01T04:30:00Z,27.8966,-93.5973,98.6,22222222 
TABS,ioos:station:wmo:42047:1,2011-06-01T04:30:00Z,27.8966,-93.5973,98.6,11111222 
TABS,ioos:station:wmo:42047:1,2011-06-01T05:00:00Z,27.8966,-93.5973,98.7,22222222 
TABS,ioos:station:wmo:42047:1,2011-06-01T05:00:00Z,27.8966,-93.5973,98.7,11111222 
TABS,ioos:station:wmo:42047:1,2011-06-01T05:30:00Z,27.8966,-93.5973,98.4,22222222 
TABS,ioos:station:wmo:42047:1,2011-06-01T05:30:00Z,27.8966,-93.5973,98.4,11111222 
TABS,ioos:station:wmo:42047:1,2011-06-01T06:00:00Z,27.8966,-93.5973,98.8,22222222 
TABS,ioos:station:wmo:42047:1,2011-06-01T06:00:00Z,27.8966,-93.5973,98.8,11111222 
TABS,ioos:station:wmo:42047:1,2011-06-01T06:30:00Z,27.8966,-93.5973,99.5,22222222 
TABS,ioos:station:wmo:42047:1,2011-06-01T06:30:00Z,27.8966,-93.5973,99.5,11111222 
TABS,ioos:station:wmo:42047:1,2011-06-01T07:00:00Z,27.8966,-93.5973,99.1,22222222 
TABS,ioos:station:wmo:42047:1,2011-06-01T07:00:00Z,27.8966,-93.5973,99.1,11111222 
TABS,ioos:station:wmo:42047:1,2011-06-01T07:30:00Z,27.8966,-93.5973,99.2,22222222 
TABS,ioos:station:wmo:42047:1,2011-06-01T07:30:00Z,27.8966,-93.5973,99.2,11111222 
TABS,ioos:station:wmo:42047:1,2011-06-01T08:00:00Z,27.8966,-93.5973,99.4,22222222 
TABS,ioos:station:wmo:42047:1,2011-06-01T08:00:00Z,27.8966,-93.5973,99.4,11111222 
TABS,ioos:station:wmo:42047:1,2011-06-01T08:30:00Z,27.8966,-93.5973,99.2,22222222 
TABS,ioos:station:wmo:42047:1,2011-06-01T08:30:00Z,27.8966,-93.5973,99.2,11111222 
TABS,ioos:station:wmo:42047:1,2011-06-01T09:00:00Z,27.8966,-93.5973,99.9,22222222 
TABS,ioos:station:wmo:42047:1,2011-06-01T09:00:00Z,27.8966,-93.5973,99.9,11111222 
TABS,ioos:station:wmo:42047:1,2011-06-01T09:30:00Z,27.8966,-93.5973,-999.0,22222222 
TABS,ioos:station:wmo:42047:1,2011-06-01T10:00:00Z,27.8966,-93.5973,-999.0,22222222 
TABS,ioos:station:wmo:42047:1,2011-06-01T10:30:00Z,27.8966,-93.5973,-999.0,22222222 
TABS,ioos:station:wmo:42047:1,2011-06-01T11:00:00Z,27.8966,-93.5973,-999.0,22222222 
TABS,ioos:station:wmo:42047:1,2011-06-01T11:30:00Z,27.8966,-93.5973,-999.0,22222222 
TABS,ioos:station:wmo:42047:1,2011-06-01T12:00:00Z,27.8966,-93.5973,99.9,22222222 
TABS,ioos:station:wmo:42047:1,2011-06-01T12:00:00Z,27.8966,-93.5973,99.9,11111222 
TABS,ioos:station:wmo:42047:1,2011-06-01T12:30:00Z,27.8966,-93.5973,-999.0,22222222 
TABS,ioos:station:wmo:42047:1,2011-06-01T13:00:00Z,27.8966,-93.5973,-999.0,22222222 
TABS,ioos:station:wmo:42047:1,2011-06-01T13:30:00Z,27.8966,-93.5973,-999.0,22222222 
TABS,ioos:station:wmo:42047:1,2011-06-01T14:00:00Z,27.8966,-93.5973,99.9,22222222 
TABS,ioos:station:wmo:42047:1,2011-06-01T14:00:00Z,27.8966,-93.5973,99.9,11111222 
TABS,ioos:station:wmo:42047:1,2011-06-01T14:30:00Z,27.8966,-93.5973,99.7,22222222 
TABS,ioos:station:wmo:42047:1,2011-06-01T14:30:00Z,27.8966,-93.5973,99.7,11111222 
TABS,ioos:station:wmo:42047:1,2011-06-01T15:00:00Z,27.8966,-93.5973,-999.0,22222222 
TABS,ioos:station:wmo:42047:1,2011-06-01T15:30:00Z,27.8966,-93.5973,-999.0,22222222 
TABS,ioos:station:wmo:42047:1,2011-06-01T16:00:00Z,27.8966,-93.5973,100.0,22222222 
TABS,ioos:station:wmo:42047:1,2011-06-01T16:00:00Z,27.8966,-93.5973,100.0,11111222 
TABS,ioos:station:wmo:42047:1,2011-06-01T16:30:00Z,27.8966,-93.5973,99.3,22222222 
TABS,ioos:station:wmo:42047:1,2011-06-01T16:30:00Z,27.8966,-93.5973,99.3,11111222 
TABS,ioos:station:wmo:42047:1,2011-06-01T17:00:00Z,27.8966,-93.5973,99.3,22222222 
TABS,ioos:station:wmo:42047:1,2011-06-01T17:00:00Z,27.8966,-93.5973,99.3,11111222 
TABS,ioos:station:wmo:42047:1,2011-06-01T17:30:00Z,27.8966,-93.5973,99.3,22222222 
TABS,ioos:station:wmo:42047:1,2011-06-01T17:30:00Z,27.8966,-93.5973,99.3,11111222 
TABS,ioos:station:wmo:42047:1,2011-06-01T18:00:00Z,27.8966,-93.5973,98.7,22222222 
TABS,ioos:station:wmo:42047:1,2011-06-01T18:00:00Z,27.8966,-93.5973,98.7,11111222 
TABS,ioos:station:wmo:42047:1,2011-06-01T18:30:00Z,27.8966,-93.5973,98.4,22222222 
TABS,ioos:station:wmo:42047:1,2011-06-01T18:30:00Z,27.8966,-93.5973,98.4,11111222 
TABS,ioos:station:wmo:42047:1,2011-06-01T19:00:00Z,27.8966,-93.5973,98.2,22222222 
TABS,ioos:station:wmo:42047:1,2011-06-01T19:00:00Z,27.8966,-93.5973,98.2,11111222 
TABS,ioos:station:wmo:42047:1,2011-06-01T19:30:00Z,27.8966,-93.5973,-999.0,22222222 
TABS,ioos:station:wmo:42047:1,2011-06-01T20:00:00Z,27.8966,-93.5973,98.8,22222222 
TABS,ioos:station:wmo:42047:1,2011-06-01T20:00:00Z,27.8966,-93.5973,98.8,11111222 
TABS,ioos:station:wmo:42047:1,2011-06-01T20:30:00Z,27.8966,-93.5973,-999.0,22222222 
TABS,ioos:station:wmo:42047:1,2011-06-01T21:00:00Z,27.8966,-93.5973,2.5,22222222 
TABS,ioos:station:wmo:42047:1,2011-06-01T21:00:00Z,27.8966,-93.5973,2.5,11111222 
TABS,ioos:station:wmo:42047:1,2011-06-01T21:30:00Z,27.8966,-93.5973,10.1,22222222 
TABS,ioos:station:wmo:42047:1,2011-06-01T21:30:00Z,27.8966,-93.5973,10.1,11111222 
TABS,ioos:station:wmo:42047:1,2011-06-01T22:00:00Z,27.8966,-93.5973,30.5,22222222 
TABS,ioos:station:wmo:42047:1,2011-06-01T22:00:00Z,27.8966,-93.5973,30.5,11111222 
TABS,ioos:station:wmo:42047:1,2011-06-01T22:30:00Z,27.8966,-93.5973,-999.0,22222222 
TABS,ioos:station:wmo:42047:1,2011-06-01T23:00:00Z,27.8966,-93.5973,-999.0,22222222 
TABS,ioos:station:wmo:42047:1,2011-06-01T23:30:00Z,27.8966,-93.5973,-999.0,22222222 
TABS,ioos:station:wmo:42047:1,2011-06-02T00:00:00Z,27.8966,-93.5973,-999.0,22222222 
TABS,ioos:station:wmo:42047:1,2011-06-02T00:30:00Z,27.8966,-93.5973,-999.0,22222222 
TABS,ioos:station:wmo:42047:1,2011-06-02T01:00:00Z,27.8966,-93.5973,-999.0,22222222 
TABS,ioos:station:wmo:42047:1,2011-06-02T01:30:00Z,27.8966,-93.5973,-999.0,22222222 
TABS,ioos:station:wmo:42047:1,2011-06-02T02:00:00Z,27.8966,-93.5973,-999.0,22222222 
TABS,ioos:station:wmo:42047:1,2011-06-02T02:30:00Z,27.8966,-93.5973,-999.0,22222222 
TABS,ioos:station:wmo:42047:1,2011-06-02T03:00:00Z,27.8966,-93.5973,-999.0,22222222 
TABS,ioos:station:wmo:42047:1,2011-06-02T03:30:00Z,27.8966,-93.5973,-999.0,22222222 
TABS,ioos:station:wmo:42047:1,2011-06-02T04:00:00Z,27.8966,-93.5973,-999.0,22222222 
TABS,ioos:station:wmo:42047:1,2011-06-02T04:30:00Z,27.8966,-93.5973,-999.0,22222222 
TABS,ioos:station:wmo:42047:1,2011-06-02T05:00:00Z,27.8966,-93.5973,-999.0,22222222 
TABS,ioos:station:wmo:42047:1,2011-06-02T05:30:00Z,27.8966,-93.5973,39.4,22222222 
TABS,ioos:station:wmo:42047:1,2011-06-02T05:30:00Z,27.8966,-93.5973,39.4,11111222 
TABS,ioos:station:wmo:42047:1,2011-06-02T06:00:00Z,27.8966,-93.5973,24.0,22222222 
TABS,ioos:station:wmo:42047:1,2011-06-02T06:00:00Z,27.8966,-93.5973,24.0,11111222 
TABS,ioos:station:wmo:42047:1,2011-06-02T06:30:00Z,27.8966,-93.5973,-999.0,22222222 
TABS,ioos:station:wmo:42047:1,2011-06-02T07:00:00Z,27.8966,-93.5973,-999.0,22222222 
TABS,ioos:station:wmo:42047:1,2011-06-02T07:30:00Z,27.8966,-93.5973,-999.0,22222222 
TABS,ioos:station:wmo:42047:1,2011-06-02T08:00:00Z,27.8966,-93.5973,-999.0,22222222 
TABS,ioos:station:wmo:42047:1,2011-06-02T08:30:00Z,27.8966,-93.5973,-999.0,22222222 
TABS,ioos:station:wmo:42047:1,2011-06-02T09:00:00Z,27.8966,-93.5973,-999.0,22222222 
TABS,ioos:station:wmo:42047:1,2011-06-02T09:30:00Z,27.8966,-93.5973,-999.0,22222222 
TABS,ioos:station:wmo:42047:1,2011-06-02T10:00:00Z,27.8966,-93.5973,-999.0,22222222 
TABS,ioos:station:wmo:42047:1,2011-06-02T10:30:00Z,27.8966,-93.5973,-999.0,22222222 
TABS,ioos:station:wmo:42047:1,2011-06-02T11:00:00Z,27.8966,-93.5973,-999.0,22222222 
TABS,ioos:station:wmo:42047:1,2011-06-02T11:30:00Z,27.8966,-93.5973,-999.0,22222222 
TABS,ioos:station:wmo:42047:1,2011-06-02T12:00:00Z,27.8966,-93.5973,-999.0,22222222 
TABS,ioos:station:wmo:42047:1,2011-06-02T12:30:00Z,27.8966,-93.5973,-999.0,22222222 
TABS,ioos:station:wmo:42047:1,2011-06-02T13:00:00Z,27.8966,-93.5973,-999.0,22222222 
TABS,ioos:station:wmo:42047:1,2011-06-02T13:30:00Z,27.8966,-93.5973,-999.0,22222222 
TABS,ioos:station:wmo:42047:1,2011-06-02T14:00:00Z,27.8966,-93.5973,-999.0,22222222 
TABS,ioos:station:wmo:42047:1,2011-06-02T14:30:00Z,27.8966,-93.5973,-999.0,22222222 
TABS,ioos:station:wmo:42047:1,2011-06-02T15:00:00Z,27.8966,-93.5973,-999.0,22222222 
TABS,ioos:station:wmo:42047:1,2011-06-02T15:30:00Z,27.8966,-93.5973,-999.0,22222222 
TABS,ioos:station:wmo:42047:1,2011-06-02T16:00:00Z,27.8966,-93.5973,-999.0,22222222 
TABS,ioos:station:wmo:42047:1,2011-06-02T16:30:00Z,27.8966,-93.5973,-999.0,22222222 
TABS,ioos:station:wmo:42047:1,2011-06-02T17:00:00Z,27.8966,-93.5973,-999.0,22222222 
TABS,ioos:station:wmo:42047:1,2011-06-02T17:30:00Z,27.8966,-93.5973,-999.0,22222222 
TABS,ioos:station:wmo:42047:1,2011-06-02T18:00:00Z,27.8966,-93.5973,-999.0,22222222 
TABS,ioos:station:wmo:42047:1,2011-06-02T18:30:00Z,27.8966,-93.5973,-999.0,22222222 
TABS,ioos:station:wmo:42047:1,2011-06-02T19:00:00Z,27.8966,-93.5973,-999.0,22222222 
TABS,ioos:station:wmo:42047:1,2011-06-02T19:30:00Z,27.8966,-93.5973,6.3,22222222 
TABS,ioos:station:wmo:42047:1,2011-06-02T19:30:00Z,27.8966,-93.5973,6.3,11111222 
TABS,ioos:station:wmo:42047:1,2011-06-02T20:00:00Z,27.8966,-93.5973,34.7,22222222 
TABS,ioos:station:wmo:42047:1,2011-06-02T20:00:00Z,27.8966,-93.5973,34.7,11111222 
TABS,ioos:station:wmo:42047:1,2011-06-02T20:30:00Z,27.8966,-93.5973,-999.0,22222222 
TABS,ioos:station:wmo:42047:1,2011-06-02T21:00:00Z,27.8966,-93.5973,-999.0,22222222 
TABS,ioos:station:wmo:42047:1,2011-06-02T21:30:00Z,27.8966,-93.5973,-999.0,22222222 
TABS,ioos:station:wmo:42047:1,2011-06-02T22:00:00Z,27.8966,-93.5973,-999.0,22222222 
TABS,ioos:station:wmo:42047:1,2011-06-02T22:30:00Z,27.8966,-93.5973,-999.0,22222222 
TABS,ioos:station:wmo:42047:1,2011-06-02T23:00:00Z,27.8966,-93.5973,-999.0,22222222 
TABS,ioos:station:wmo:42047:1,2011-06-02T23:30:00Z,27.8966,-93.5973,-999.0,22222222 
TABS,ioos:station:wmo:42047:1,2011-06-03T00:00:00Z,27.8966,-93.5973,-999.0,22222222 
TABS,ioos:station:wmo:42047:1,2011-06-03T00:30:00Z,27.8966,-93.5973,-999.0,22222222 
TABS,ioos:station:wmo:42047:1,2011-06-03T01:00:00Z,27.8966,-93.5973,-999.0,22222222 
TABS,ioos:station:wmo:42047:1,2011-06-03T01:30:00Z,27.8966,-93.5973,-999.0,22222222 
TABS,ioos:station:wmo:42047:1,2011-06-03T02:00:00Z,27.8966,-93.5973,-999.0,22222222 
TABS,ioos:station:wmo:42047:1,2011-06-03T02:30:00Z,27.8966,-93.5973,-999.0,22222222 
TABS,ioos:station:wmo:42047:1,2011-06-03T03:00:00Z,27.8966,-93.5973,-999.0,22222222 
TABS,ioos:station:wmo:42047:1,2011-06-03T03:30:00Z,27.8966,-93.5973,-999.0,22222222 
TABS,ioos:station:wmo:42047:1,2011-06-03T04:00:00Z,27.8966,-93.5973,-999.0,22222222 
TABS,ioos:station:wmo:42047:1,2011-06-03T04:30:00Z,27.8966,-93.5973,-999.0,22222222 
TABS,ioos:station:wmo:42047:1,2011-06-03T05:00:00Z,27.8966,-93.5973,-999.0,22222222 
TABS,ioos:station:wmo:42047:1,2011-06-03T05:30:00Z,27.8966,-93.5973,-999.0,22222222 
TABS,ioos:station:wmo:42047:1,2011-06-03T06:00:00Z,27.8966,-93.5973,-999.0,22222222 
TABS,ioos:station:wmo:42047:1,2011-06-03T06:30:00Z,27.8966,-93.5973,-999.0,22222222 
TABS,ioos:station:wmo:42047:1,2011-06-03T07:00:00Z,27.8966,-93.5973,-999.0,22222222 
TABS,ioos:station:wmo:42047:1,2011-06-03T07:30:00Z,27.8966,-93.5973,-999.0,22222222 
TABS,ioos:station:wmo:42047:1,2011-06-03T08:00:00Z,27.8966,-93.5973,-999.0,22222222 
TABS,ioos:station:wmo:42047:1,2011-06-03T08:30:00Z,27.8966,-93.5973,-999.0,22222222 
TABS,ioos:station:wmo:42047:1,2011-06-03T09:00:00Z,27.8966,-93.5973,-999.0,22222222 
TABS,ioos:station:wmo:42047:1,2011-06-03T09:30:00Z,27.8966,-93.5973,-999.0,22222222 
TABS,ioos:station:wmo:42047:1,2011-06-03T10:00:00Z,27.8966,-93.5973,-999.0,22222222 
TABS,ioos:station:wmo:42047:1,2011-06-03T10:30:00Z,27.8966,-93.5973,-999.0,22222222 
TABS,ioos:station:wmo:42047:1,2011-06-03T11:00:00Z,27.8966,-93.5973,-999.0,22222222 
TABS,ioos:station:wmo:42047:1,2011-06-03T11:30:00Z,27.8966,-93.5973,-999.0,22222222 
TABS,ioos:station:wmo:42047:1,2011-06-03T12:00:00Z,27.8966,-93.5973,-999.0,22222222 
TABS,ioos:station:wmo:42047:1,2011-06-03T12:30:00Z,27.8966,-93.5973,-999.0,22222222 
TABS,ioos:station:wmo:42047:1,2011-06-03T13:00:00Z,27.8966,-93.5973,-999.0,22222222 
TABS,ioos:station:wmo:42047:1,2011-06-03T13:30:00Z,27.8966,-93.5973,-999.0,22222222 
TABS,ioos:station:wmo:42047:1,2011-06-03T14:00:00Z,27.8966,-93.5973,-999.0,22222222 
TABS,ioos:station:wmo:42047:1,2011-06-03T14:30:00Z,27.8966,-93.5973,-999.0,22222222 
TABS,ioos:station:wmo:42047:1,2011-06-03T15:00:00Z,27.8966,-93.5973,-999.0,22222222 
TABS,ioos:station:wmo:42047:1,2011-06-03T15:30:00Z,27.8966,-93.5973,-999.0,22222222 
TABS,ioos:station:wmo:42047:1,2011-06-03T16:00:00Z,27.8966,-93.5973,-999.0,22222222 
TABS,ioos:station:wmo:42047:1,2011-06-03T16:30:00Z,27.8966,-93.5973,-999.0,22222222 
TABS,ioos:station:wmo:42047:1,2011-06-03T17:00:00Z,27.8966,-93.5973,-999.0,22222222 
TABS,ioos:station:wmo:42047:1,2011-06-03T17:30:00Z,27.8966,-93.5973,-999.0,22222222 
TABS,ioos:station:wmo:42047:1,2011-06-03T18:00:00Z,27.8966,-93.5973,-999.0,22222222 
TABS,ioos:station:wmo:42047:1,2011-06-03T18:30:00Z,27.8966,-93.5973,-999.0,22222222 
TABS,ioos:station:wmo:42047:1,2011-06-03T19:00:00Z,27.8966,-93.5973,-999.0,22222222 
TABS,ioos:station:wmo:42047:1,2011-06-03T19:30:00Z,27.8966,-93.5973,-999.0,22222222 
TABS,ioos:station:wmo:42047:1,2011-06-03T20:00:00Z,27.8966,-93.5973,-999.0,22222222 
TABS,ioos:station:wmo:42047:1,2011-06-03T20:30:00Z,27.8966,-93.5973,-999.0,22222222 
TABS,ioos:station:wmo:42047:1,2011-06-03T21:00:00Z,27.8966,-93.5973,-999.0,22222222 
TABS,ioos:station:wmo:42047:1,2011-06-03T21:30:00Z,27.8966,-93.5973,-999.0,22222222 
TABS,ioos:station:wmo:42047:1,2011-06-03T22:00:00Z,27.8966,-93.5973,-999.0,22222222 
TABS,ioos:station:wmo:42047:1,2011-06-03T22:30:00Z,27.8966,-93.5973,-999.0,22222222 
TABS,ioos:station:wmo:42047:1,2011-06-03T23:00:00Z,27.8966,-93.5973,-999.0,22222222 
TABS,ioos:station:wmo:42047:1,2011-06-03T23:30:00Z,27.8966,-93.5973,-999.0,22222222 
TABS,ioos:station:wmo:42047:1,2011-06-04T00:00:00Z,27.8966,-93.5973,-999.0,22222222 
TABS,ioos:station:wmo:42047:1,2011-06-04T00:30:00Z,27.8966,-93.5973,-999.0,22222222 
TABS,ioos:station:wmo:42047:1,2011-06-04T01:00:00Z,27.8966,-93.5973,-999.0,22222222 
TABS,ioos:station:wmo:42047:1,2011-06-04T01:30:00Z,27.8966,-93.5973,-999.0,22222222 
TABS,ioos:station:wmo:42047:1,2011-06-04T02:00:00Z,27.8966,-93.5973,-999.0,22222222 
TABS,ioos:station:wmo:42047:1,2011-06-04T02:30:00Z,27.8966,-93.5973,-999.0,22222222 
TABS,ioos:station:wmo:42047:1,2011-06-04T03:00:00Z,27.8966,-93.5973,-999.0,22222222 
TABS,ioos:station:wmo:42047:1,2011-06-04T03:30:00Z,27.8966,-93.5973,-999.0,22222222 
TABS,ioos:station:wmo:42047:1,2011-06-04T04:00:00Z,27.8966,-93.5973,-999.0,22222222 
TABS,ioos:station:wmo:42047:1,2011-06-04T04:30:00Z,27.8966,-93.5973,-999.0,22222222 
TABS,ioos:station:wmo:42047:1,2011-06-04T05:00:00Z,27.8966,-93.5973,-999.0,22222222 
TABS,ioos:station:wmo:42047:1,2011-06-04T05:30:00Z,27.8966,-93.5973,-999.0,22222222 
TABS,ioos:station:wmo:42047:1,2011-06-04T06:00:00Z,27.8966,-93.5973,-999.0,22222222 
TABS,ioos:station:wmo:42047:1,2011-06-04T06:30:00Z,27.8966,-93.5973,-999.0,22222222 
TABS,ioos:station:wmo:42047:1,2011-06-04T07:00:00Z,27.8966,-93.5973,-999.0,22222222 
TABS,ioos:station:wmo:42047:1,2011-06-04T07:30:00Z,27.8966,-93.5973,-999.0,22222222 
TABS,ioos:station:wmo:42047:1,2011-06-04T08:00:00Z,27.8966,-93.5973,-999.0,22222222 
TABS,ioos:station:wmo:42047:1,2011-06-04T08:30:00Z,27.8966,-93.5973,-999.0,22222222 
TABS,ioos:station:wmo:42047:1,2011-06-04T09:00:00Z,27.8966,-93.5973,-999.0,22222222 
TABS,ioos:station:wmo:42047:1,2011-06-04T09:30:00Z,27.8966,-93.5973,-999.0,22222222 
TABS,ioos:station:wmo:42047:1,2011-06-04T10:00:00Z,27.8966,-93.5973,12.4,22222222 
TABS,ioos:station:wmo:42047:1,2011-06-04T10:00:00Z,27.8966,-93.5973,12.4,11111222 
TABS,ioos:station:wmo:42047:1,2011-06-04T10:30:00Z,27.8966,-93.5973,-999.0,22222222 
TABS,ioos:station:wmo:42047:1,2011-06-04T11:00:00Z,27.8966,-93.5973,-999.0,22222222 
TABS,ioos:station:wmo:42047:1,2011-06-04T11:30:00Z,27.8966,-93.5973,-999.0,22222222 
TABS,ioos:station:wmo:42047:1,2011-06-04T12:00:00Z,27.8966,-93.5973,-999.0,22222222 
TABS,ioos:station:wmo:42047:1,2011-06-04T12:30:00Z,27.8966,-93.5973,-999.0,22222222 
TABS,ioos:station:wmo:42047:1,2011-06-04T13:00:00Z,27.8966,-93.5973,-999.0,22222222 
TABS,ioos:station:wmo:42047:1,2011-06-04T13:30:00Z,27.8966,-93.5973,13.6,22222222 
TABS,ioos:station:wmo:42047:1,2011-06-04T13:30:00Z,27.8966,-93.5973,13.6,11111222 
TABS,ioos:station:wmo:42047:1,2011-06-04T14:00:00Z,27.8966,-93.5973,-999.0,22222222 
TABS,ioos:station:wmo:42047:1,2011-06-04T14:30:00Z,27.8966,-93.5973,-999.0,22222222 
TABS,ioos:station:wmo:42047:1,2011-06-04T15:00:00Z,27.8966,-93.5973,-999.0,22222222 
TABS,ioos:station:wmo:42047:1,2011-06-04T15:30:00Z,27.8966,-93.5973,-999.0,22222222 
TABS,ioos:station:wmo:42047:1,2011-06-04T16:00:00Z,27.8966,-93.5973,-999.0,22222222 
TABS,ioos:station:wmo:42047:1,2011-06-04T16:30:00Z,27.8966,-93.5973,-999.0,22222222 
TABS,ioos:station:wmo:42047:1,2011-06-04T17:00:00Z,27.8966,-93.5973,-999.0,22222222 
TABS,ioos:station:wmo:42047:1,2011-06-04T17:30:00Z,27.8966,-93.5973,-999.0,22222222 
TABS,ioos:station:wmo:42047:1,2011-06-04T18:00:00Z,27.8966,-93.5973,-999.0,22222222 
TABS,ioos:station:wmo:42047:1,2011-06-04T18:30:00Z,27.8966,-93.5973,-999.0,22222222 
TABS,ioos:station:wmo:42047:1,2011-06-04T19:00:00Z,27.8966,-93.5973,-999.0,22222222 
TABS,ioos:station:wmo:42047:1,2011-06-04T19:30:00Z,27.8966,-93.5973,-999.0,22222222 
TABS,ioos:station:wmo:42047:1,2011-06-04T20:00:00Z,27.8966,-93.5973,-999.0,22222222 
TABS,ioos:station:wmo:42047:1,2011-06-04T20:30:00Z,27.8966,-93.5973,-999.0,22222222 
TABS,ioos:station:wmo:42047:1,2011-06-04T21:00:00Z,27.8966,-93.5973,-999.0,22222222 
TABS,ioos:station:wmo:42047:1,2011-06-04T21:30:00Z,27.8966,-93.5973,-999.0,22222222 
TABS,ioos:station:wmo:42047:1,2011-06-04T22:00:00Z,27.8966,-93.5973,-999.0,22222222 
TABS,ioos:station:wmo:42047:1,2011-06-04T22:30:00Z,27.8966,-93.5973,-999.0,22222222 
TABS,ioos:station:wmo:42047:1,2011-06-04T23:00:00Z,27.8966,-93.5973,-999.0,22222222 
TABS,ioos:station:wmo:42047:1,2011-06-04T23:30:00Z,27.8966,-93.5973,-999.0,22222222 
TABS,ioos:station:wmo:42047:1,2011-06-05T00:00:00Z,27.8966,-93.5973,-999.0,22222222 
TABS,ioos:station:wmo:42047:1,2011-06-05T00:30:00Z,27.8966,-93.5973,-999.0,22222222 
TABS,ioos:station:wmo:42047:1,2011-06-05T01:00:00Z,27.8966,-93.5973,-999.0,22222222 
TABS,ioos:station:wmo:42047:1,2011-06-05T01:30:00Z,27.8966,-93.5973,-999.0,22222222 
TABS,ioos:station:wmo:42047:1,2011-06-05T02:00:00Z,27.8966,-93.5973,-999.0,22222222 
TABS,ioos:station:wmo:42047:1,2011-06-05T02:30:00Z,27.8966,-93.5973,-999.0,22222222 
TABS,ioos:station:wmo:42047:1,2011-06-05T03:00:00Z,27.8966,-93.5973,-999.0,22222222 
TABS,ioos:station:wmo:42047:1,2011-06-05T03:30:00Z,27.8966,-93.5973,-999.0,22222222 
TABS,ioos:station:wmo:42047:1,2011-06-05T04:00:00Z,27.8966,-93.5973,-999.0,22222222 
TABS,ioos:station:wmo:42047:1,2011-06-05T04:30:00Z,27.8966,-93.5973,-999.0,22222222 
TABS,ioos:station:wmo:42047:1,2011-06-05T05:00:00Z,27.8966,-93.5973,-999.0,22222222 
TABS,ioos:station:wmo:42047:1,2011-06-05T05:30:00Z,27.8966,-93.5973,-999.0,22222222 
TABS,ioos:station:wmo:42047:1,2011-06-05T06:00:00Z,27.8966,-93.5973,-999.0,22222222 
TABS,ioos:station:wmo:42047:1,2011-06-05T06:30:00Z,27.8966,-93.5973,-999.0,22222222 
TABS,ioos:station:wmo:42047:1,2011-06-05T07:00:00Z,27.8966,-93.5973,-999.0,22222222 
TABS,ioos:station:wmo:42047:1,2011-06-05T07:30:00Z,27.8966,-93.5973,98.3,22222222 
TABS,ioos:station:wmo:42047:1,2011-06-05T07:30:00Z,27.8966,-93.5973,98.3,11111222 
TABS,ioos:station:wmo:42047:1,2011-06-05T08:00:00Z,27.8966,-93.5973,99.0,22222222 
TABS,ioos:station:wmo:42047:1,2011-06-05T08:00:00Z,27.8966,-93.5973,99.0,11111222 
TABS,ioos:station:wmo:42047:1,2011-06-05T08:30:00Z,27.8966,-93.5973,100.0,22222222 
TABS,ioos:station:wmo:42047:1,2011-06-05T08:30:00Z,27.8966,-93.5973,100.0,11111222 
TABS,ioos:station:wmo:42047:1,2011-06-05T09:00:00Z,27.8966,-93.5973,-999.0,22222222 
TABS,ioos:station:wmo:42047:1,2011-06-05T09:30:00Z,27.8966,-93.5973,99.6,22222222 
TABS,ioos:station:wmo:42047:1,2011-06-05T09:30:00Z,27.8966,-93.5973,99.6,11111222 
TABS,ioos:station:wmo:42047:1,2011-06-05T10:00:00Z,27.8966,-93.5973,99.0,22222222 
TABS,ioos:station:wmo:42047:1,2011-06-05T10:00:00Z,27.8966,-93.5973,99.0,11111222 
TABS,ioos:station:wmo:42047:1,2011-06-05T10:30:00Z,27.8966,-93.5973,99.5,22222222 
TABS,ioos:station:wmo:42047:1,2011-06-05T10:30:00Z,27.8966,-93.5973,99.5,11111222 
TABS,ioos:station:wmo:42047:1,2011-06-05T11:00:00Z,27.8966,-93.5973,99.9,22222222 
TABS,ioos:station:wmo:42047:1,2011-06-05T11:00:00Z,27.8966,-93.5973,99.9,11111222 
TABS,ioos:station:wmo:42047:1,2011-06-05T11:30:00Z,27.8966,-93.5973,-999.0,22222222 
TABS,ioos:station:wmo:42047:1,2011-06-05T12:00:00Z,27.8966,-93.5973,-999.0,22222222 
TABS,ioos:station:wmo:42047:1,2011-06-05T12:30:00Z,27.8966,-93.5973,-999.0,22222222 
TABS,ioos:station:wmo:42047:1,2011-06-05T13:00:00Z,27.8966,-93.5973,-999.0,22222222 
TABS,ioos:station:wmo:42047:1,2011-06-05T13:30:00Z,27.8966,-93.5973,-999.0,22222222 
TABS,ioos:station:wmo:42047:1,2011-06-05T14:00:00Z,27.8966,-93.5973,-999.0,22222222 
TABS,ioos:station:wmo:42047:1,2011-06-05T14:30:00Z,27.8966,-93.5973,-999.0,22222222 
TABS,ioos:station:wmo:42047:1,2011-06-05T15:00:00Z,27.8966,-93.5973,-999.0,22222222 
TABS,ioos:station:wmo:42047:1,2011-06-05T15:30:00Z,27.8966,-93.5973,-999.0,22222222 
TABS,ioos:station:wmo:42047:1,2011-06-05T16:00:00Z,27.8966,-93.5973,-999.0,22222222 
TABS,ioos:station:wmo:42047:1,2011-06-05T16:30:00Z,27.8966,-93.5973,-999.0,22222222 
TABS,ioos:station:wmo:42047:1,2011-06-05T17:00:00Z,27.8966,-93.5973,98.6,22222222 
TABS,ioos:station:wmo:42047:1,2011-06-05T17:00:00Z,27.8966,-93.5973,98.6,11111222 
TABS,ioos:station:wmo:42047:1,2011-06-05T17:30:00Z,27.8966,-93.5973,98.3,22222222 
TABS,ioos:station:wmo:42047:1,2011-06-05T17:30:00Z,27.8966,-93.5973,98.3,11111222 
TABS,ioos:station:wmo:42047:1,2011-06-05T18:00:00Z,27.8966,-93.5973,-999.0,22222222 
TABS,ioos:station:wmo:42047:1,2011-06-05T18:30:00Z,27.8966,-93.5973,3.9,22222222 
TABS,ioos:station:wmo:42047:1,2011-06-05T18:30:00Z,27.8966,-93.5973,3.9,11111222 
TABS,ioos:station:wmo:42047:1,2011-06-05T19:00:00Z,27.8966,-93.5973,0.7,22222222 
TABS,ioos:station:wmo:42047:1,2011-06-05T19:00:00Z,27.8966,-93.5973,0.7,11111222 
TABS,ioos:station:wmo:42047:1,2011-06-05T19:30:00Z,27.8966,-93.5973,-999.0,22222222 
TABS,ioos:station:wmo:42047:1,2011-06-05T20:00:00Z,27.8966,-93.5973,-999.0,22222222 
TABS,ioos:station:wmo:42047:1,2011-06-05T20:30:00Z,27.8966,-93.5973,-999.0,22222222 
TABS,ioos:station:wmo:42047:1,2011-06-05T21:00:00Z,27.8966,-93.5973,-999.0,22222222 
TABS,ioos:station:wmo:42047:1,2011-06-05T21:30:00Z,27.8966,-93.5973,-999.0,22222222 
TABS,ioos:station:wmo:42047:1,2011-06-05T22:00:00Z,27.8966,-93.5973,-999.0,22222222 
TABS,ioos:station:wmo:42047:1,2011-06-05T22:30:00Z,27.8966,-93.5973,-999.0,22222222 
TABS,ioos:station:wmo:42047:1,2011-06-05T23:00:00Z,27.8966,-93.5973,-999.0,22222222 